Hourly Weather Kalagi

Today, 16 April, Friday

Time Temperature Precipitation Wind Pressure Humidity
00:00 +28°C° 0 mm 2 mps 754 mmHg 46%
01:00 +27°C° 0 mm 2 mps 754 mmHg 47%
02:00 +26°C° 0 mm 2 mps 754 mmHg 47%
03:00 +26°C° 0 mm 2 mps 754 mmHg 47%
04:00 +25°C° 0 mm 2 mps 754 mmHg 48%
05:00 +25°C° 0 mm 2 mps 754 mmHg 49%
06:00 +26°C° 0 mm 2 mps 754 mmHg 44%
07:00 +28°C° 0 mm 3 mps 754 mmHg 39%
08:00 +29°C° 0 mm 3 mps 755 mmHg 34%
09:00 +33°C° 0 mm 3 mps 754 mmHg 28%
10:00 +36°C° 0 mm 3 mps 754 mmHg 21%
11:00 +39°C° 0 mm 3 mps 754 mmHg 15%
12:00 +42°C° 0 mm 3 mps 753 mmHg 13%
13:00 +42°C° 0 mm 2 mps 752 mmHg 12%
14:00 +43°C° 0 mm 2 mps 751 mmHg 10%
15:00 +43°C° 0 mm 3 mps 751 mmHg 13%
16:00 +41°C° 0 mm 5 mps 751 mmHg 17%
17:00 +40°C° 0 mm 6 mps 751 mmHg 20%
18:00 +36°C° 0 mm 5 mps 751 mmHg 27%
19:00 +34°C° 0 mm 5 mps 752 mmHg 35%
20:00 +30°C° 0 mm 5 mps 753 mmHg 42%
21:00 +29°C° 0 mm 4 mps 753 mmHg 40%
22:00 +29°C° 0 mm 4 mps 754 mmHg 39%
23:00 +29°C° 0 mm 3 mps 754 mmHg 37%

Tomorrow, 17 April, Saturday

Time Temperature Precipitation Wind Pressure Humidity
00:00 +28°C° 0 mm 3 mps 754 mmHg 39%
01:00 +27°C° 0 mm 3 mps 753 mmHg 41%
02:00 +26°C° 0 mm 3 mps 753 mmHg 42%
03:00 +26°C° 0 mm 2 mps 754 mmHg 44%
04:00 +25°C° 0 mm 2 mps 754 mmHg 46%
05:00 +24°C° 0 mm 2 mps 754 mmHg 48%
06:00 +26°C° 0 mm 2 mps 755 mmHg 43%
07:00 +27°C° 0 mm 2 mps 755 mmHg 38%
08:00 +29°C° 0 mm 3 mps 756 mmHg 33%
09:00 +33°C° 0 mm 3 mps 755 mmHg 27%
10:00 +36°C° 0 mm 3 mps 755 mmHg 21%
11:00 +39°C° 0 mm 3 mps 755 mmHg 15%
12:00 +40°C° 0 mm 3 mps 754 mmHg 13%
13:00 +42°C° 0 mm 3 mps 753 mmHg 12%
14:00 +44°C° 0 mm 3 mps 752 mmHg 10%
15:00 +43°C° 0 mm 4 mps 752 mmHg 12%
16:00 +42°C° 0 mm 4 mps 752 mmHg 15%
17:00 +41°C° 0 mm 5 mps 751 mmHg 18%
18:00 +36°C° 0 mm 5 mps 752 mmHg 27%
19:00 +33°C° 0 mm 5 mps 753 mmHg 37%
20:00 +28°C° 0 mm 5 mps 753 mmHg 47%
21:00 +28°C° 0 mm 4 mps 754 mmHg 47%
22:00 +28°C° 0 mm 3 mps 754 mmHg 48%
23:00 +27°C° 0 mm 2 mps 755 mmHg 48%

Day after tomorrow, 18 April, Sunday

Time Temperature Precipitation Wind Pressure Humidity
00:00 +27°C° 0 mm 2 mps 754 mmHg 51%
01:00 +26°C° 0 mm 2 mps 754 mmHg 55%
02:00 +25°C° 0 mm 2 mps 754 mmHg 58%
03:00 +25°C° 0 mm 2 mps 754 mmHg 60%
04:00 +24°C° 0 mm 2 mps 755 mmHg 62%
05:00 +24°C° 0 mm 2 mps 755 mmHg 64%
06:00 +25°C° 0 mm 2 mps 755 mmHg 56%
07:00 +27°C° 0 mm 2 mps 756 mmHg 49%
08:00 +28°C° 0 mm 2 mps 756 mmHg 41%
09:00 +31°C° 0 mm 3 mps 756 mmHg 33%
10:00 +35°C° 0 mm 3 mps 755 mmHg 24%
11:00 +38°C° 0 mm 3 mps 755 mmHg 16%
12:00 +40°C° 0 mm 3 mps 754 mmHg 14%
13:00 +43°C° 0 mm 3 mps 753 mmHg 11%
14:00 +44°C° 0 mm 3 mps 752 mmHg 9%
15:00 +43°C° 0 mm 4 mps 752 mmHg 11%
16:00 +42°C° 0 mm 4 mps 752 mmHg 13%
17:00 +42°C° 0 mm 5 mps 752 mmHg 15%
18:00 +37°C° 0 mm 5 mps 752 mmHg 25%
19:00 +34°C° 0 mm 5 mps 753 mmHg 36%
20:00 +29°C° 0 mm 5 mps 753 mmHg 46%
21:00 +29°C° 0 mm 4 mps 754 mmHg 44%
22:00 +29°C° 0 mm 3 mps 754 mmHg 42%
23:00 +29°C° 0 mm 2 mps 755 mmHg 40%

19 April, Monday

Time Temperature Precipitation Wind Pressure Humidity
00:00 +28°C° 0 mm 2 mps 754 mmHg 40%
01:00 +27°C° 0 mm 1 mps 754 mmHg 41%
02:00 +27°C° 0 mm 1 mps 754 mmHg 41%
03:00 +26°C° 0 mm 1 mps 754 mmHg 42%
04:00 +26°C° 0 mm 1 mps 754 mmHg 42%
05:00 +25°C° 0 mm 2 mps 755 mmHg 43%
06:00 +27°C° 0 mm 2 mps 755 mmHg 37%
07:00 +29°C° 0 mm 2 mps 755 mmHg 31%
08:00 +31°C° 0 mm 2 mps 756 mmHg 25%
09:00 +34°C° 0 mm 3 mps 756 mmHg 20%
10:00 +37°C° 0 mm 3 mps 755 mmHg 16%
11:00 +41°C° 0 mm 4 mps 755 mmHg 11%
12:00 +43°C° 0 mm 4 mps 754 mmHg 10%
13:00 +44°C° 0 mm 4 mps 753 mmHg 9%
14:00 +45°C° 0 mm 4 mps 752 mmHg 8%
15:00 +44°C° 0 mm 4 mps 752 mmHg 11%
16:00 +43°C° 0 mm 4 mps 752 mmHg 13%
17:00 +42°C° 0 mm 4 mps 752 mmHg 16%
18:00 +37°C° 0 mm 4 mps 752 mmHg 25%
19:00 +34°C° 0 mm 4 mps 753 mmHg 35%
20:00 +29°C° 0 mm 4 mps 753 mmHg 44%
21:00 +29°C° 0 mm 3 mps 754 mmHg 45%
22:00 +28°C° 0 mm 3 mps 754 mmHg 45%
23:00 +28°C° 0 mm 2 mps 755 mmHg 46%

20 April, Tuesday

Time Temperature Precipitation Wind Pressure Humidity
00:00 +27°C° 0 mm 2 mps 754 mmHg 49%
01:00 +26°C° 0 mm 2 mps 754 mmHg 53%
02:00 +25°C° 0 mm 1 mps 754 mmHg 56%
03:00 +25°C° 0 mm 2 mps 754 mmHg 58%
04:00 +24°C° 0 mm 2 mps 754 mmHg 61%
05:00 +24°C° 0 mm 2 mps 754 mmHg 63%
06:00 +26°C° 0 mm 2 mps 755 mmHg 55%
07:00 +27°C° 0 mm 2 mps 755 mmHg 46%
08:00 +29°C° 0 mm 1 mps 756 mmHg 38%
09:00 +32°C° 0 mm 2 mps 755 mmHg 30%
10:00 +36°C° 0 mm 2 mps 755 mmHg 22%
11:00 +39°C° 0 mm 2 mps 755 mmHg 15%
12:00 +40°C° 0 mm 2 mps 754 mmHg 13%
13:00 +43°C° 0 mm 3 mps 753 mmHg 11%
14:00 +44°C° 0 mm 3 mps 752 mmHg 9%
15:00 +43°C° 0 mm 4 mps 752 mmHg 14%
16:00 +41°C° 0 mm 5 mps 752 mmHg 18%
17:00 +39°C° 0 mm 6 mps 752 mmHg 22%
18:00 +35°C° 0 mm 6 mps 752 mmHg 33%
19:00 +32°C° 0 mm 5 mps 753 mmHg 43%
20:00 +27°C° 0 mm 5 mps 753 mmHg 54%
21:00 +27°C° 0 mm 4 mps 754 mmHg 55%
22:00 +27°C° 0 mm 3 mps 754 mmHg 56%
23:00 +26°C° 0 mm 3 mps 754 mmHg 57%

21 April, Wednesday

Time Temperature Precipitation Wind Pressure Humidity
00:00 +25°C° 0 mm 2 mps 754 mmHg 60%
01:00 +25°C° 0 mm 2 mps 754 mmHg 63%
02:00 +24°C° 0 mm 2 mps 754 mmHg 67%
03:00 +24°C° 0 mm 2 mps 754 mmHg 70%
04:00 +23°C° 0 mm 2 mps 754 mmHg 73%
05:00 +23°C° 0 mm 2 mps 754 mmHg 76%
06:00 +24°C° 0 mm 1 mps 755 mmHg 68%
07:00 +26°C° 0 mm 1 mps 755 mmHg 59%
08:00 +27°C° 0 mm 1 mps 756 mmHg 51%
09:00 +30°C° 0 mm 1 mps 756 mmHg 41%
10:00 +34°C° 0 mm 2 mps 755 mmHg 31%
11:00 +37°C° 0 mm 2 mps 755 mmHg 22%
12:00 +38°C° 0 mm 2 mps 754 mmHg 19%
13:00 +40°C° 0 mm 3 mps 753 mmHg 16%
14:00 +42°C° 0 mm 3 mps 752 mmHg 13%
15:00 +41°C° 0 mm 4 mps 752 mmHg 17%
16:00 +40°C° 0 mm 5 mps 752 mmHg 21%
17:00 +39°C° 0 mm 6 mps 752 mmHg 24%
18:00 +34°C° 0 mm 6 mps 753 mmHg 36%
19:00 +30°C° 0 mm 5 mps 753 mmHg 47%
20:00 +27°C° 0 mm 5 mps 754 mmHg 58%
21:00 +26°C° 0 mm 4 mps 754 mmHg 60%
22:00 +26°C° 0 mm 4 mps 754 mmHg 62%
23:00 +25°C° 0 mm 3 mps 755 mmHg 64%
Show more